K0WOI Weather Reports


Display with metric or nautical units.
time (UTC)temp
F
wind
direction
speed
MPH
gust
MPH
rain 1hr
in
rain 24hr
in
rain mn
in
humidity
%
barometer
mb
20260901225215 94 83 1.0 1.0 0.00 0.00 0.00 60 1011.0
20260901224711 94 83 1.0 1.0 0.00 0.00 0.00 60 1010.7
20260901224207 95 83 0.0 0.0 0.00 0.00 0.00 59 1011.0
20260901223703 95 83 1.0 2.0 0.00 0.00 0.00 58 1010.7
20260901223158 94 83 1.0 1.0 0.00 0.00 0.00 58 1010.8
20260901222654 95 83 0.0 0.0 0.00 0.00 0.00 62 1010.8
20260901222150 95 83 1.0 1.0 0.00 0.00 0.00 58 1010.9
20260901221645 95 83 2.0 2.0 0.00 0.00 0.00 56 1011.0
20260901221141 94 84 2.0 2.0 0.00 0.00 0.00 54 1011.2
20260901220639 95 83 3.0 5.0 0.00 0.00 0.00 54 1010.8
20260901220139 94 84 2.0 2.0 0.00 0.00 0.00 59 1011.0
20260901215637 95 84 2.0 2.0 0.00 0.00 0.00 57 1011.3
20260901215132 96 83 0.0 1.0 0.00 0.00 0.00 57 1011.2
20260901214630 96 84 1.0 2.0 0.00 0.00 0.00 54 1011.2
20260901214124 95 83 1.0 1.0 0.00 0.00 0.00 55 1011.4
20260901213619 95 84 1.0 1.0 0.00 0.00 0.00 56 1011.3
20260901213114 95 84 1.0 1.0 0.00 0.00 0.00 55 1011.6
20260901212613 95 84 1.0 2.0 0.00 0.00 0.00 54 1011.2
20260901212110 96 84 3.0 3.0 0.00 0.00 0.00 51 1011.5
20260901211604 95 84 1.0 2.0 0.00 0.00 0.00 57 1011.5
20260901211101 96 84 2.0 2.0 0.00 0.00 0.00 54 1011.6
20260901210556 96 84 1.0 1.0 0.00 0.00 0.00 55 1011.6
20260901210053 95 84 0.0 1.0 0.00 0.00 0.00 57 1011.5
20260901205548 95 84 2.0 2.0 0.00 0.00 0.00 56 1011.7
20260901205047 95 84 0.0 1.0 0.00 0.00 0.00 57 1011.8
20260901204544 95 84 1.0 1.0 0.00 0.00 0.00 54 1011.9
20260901204039 95 84 2.0 2.0 0.00 0.00 0.00 52 1011.8
20260901203539 96 84 1.0 1.0 0.00 0.00 0.00 56 1011.7
20260901203034 95 84 0.0 1.0 0.00 0.00 0.00 52 1011.9
20260901202528 95 84 0.0 1.0 0.00 0.00 0.00 56 1011.9
20260901202025 95 84 1.0 1.0 0.00 0.00 0.00 54 1011.9
20260901201520 95 84 1.0 1.0 0.00 0.00 0.00 55 1012.1
20260901201015 94 84 3.0 3.0 0.00 0.00 0.00 57 1012.1
20260901200514 94 84 2.0 2.0 0.00 0.00 0.00 57 1012.0
20260901200009 93 83 1.0 1.0 0.00 0.00 0.00 59 1012.1
20260901195507 94 84 2.0 2.0 0.00 0.00 0.00 56 1012.3
20260901195006 93 84 2.0 2.0 0.00 0.00 0.00 54 1012.2
20260901194501 93 83 1.0 1.0 0.00 0.00 0.00 59 1012.3
20260901193957 93 84 0.0 1.0 0.00 0.00 0.00 55 1012.5
20260901193456 93 84 1.0 2.0 0.00 0.00 0.00 56 1012.4
20260901192956 93 84 2.0 2.0 0.00 0.00 0.00 56 1012.4
20260901192452 93 84 1.0 1.0 0.00 0.00 0.00 58 1012.6
20260901191948 93 84 2.0 3.0 0.00 0.00 0.00 56 1012.7
20260901191443 92 83 0.0 1.0 0.00 0.00 0.00 57 1012.5
20260901190939 91 85 4.0 5.0 0.00 0.00 0.00 58 1012.6
20260901190434 91 84 4.0 5.0 0.00 0.00 0.00 56 1013.0
20260901185932 91 83 2.0 3.0 0.00 0.00 0.00 56 1012.7
20260901185431 91 83 0.0 1.0 0.00 0.00 0.00 57 1012.6
20260901184926 91 83 1.0 1.0 0.00 0.00 0.00 54 1012.7
20260901184421 90 83 1.0 2.0 0.00 0.00 0.00 60 1012.9
20260901183917 90 83 2.0 2.0 0.00 0.00 0.00 58 1012.9
20260901183416 90 83 1.0 2.0 0.00 0.00 0.00 57 1013.0
20260901182912 90 83 1.0 2.0 0.00 0.00 0.00 59 1013.0
20260901182407 90 85 3.0 5.0 0.00 0.00 0.00 58 1013.1
20260901181857 90 83 1.0 1.0 0.00 0.00 0.00 59 1013.2
20260901181357 90 83 1.0 1.0 0.00 0.00 0.00 60 1013.4
20260901180855 90 83 1.0 2.0 0.00 0.00 0.00 60 1013.3
20260901180355 89 83 1.0 2.0 0.00 0.00 0.00 61 1013.4
20260901175853 89 84 3.0 3.0 0.00 0.00 0.00 61 1013.5
20260901175348 89 84 2.0 3.0 0.00 0.00 0.00 60 1013.5
20260901174843 90 83 0.0 0.0 0.00 0.00 0.00 63 1013.4
20260901174339 89 84 3.0 3.0 0.00 0.00 0.00 60 1013.6
20260901173835 89 83 3.0 3.0 0.00 0.00 0.00 63 1013.5
20260901173329 89 83 2.0 2.0 0.00 0.00 0.00 62 1013.3
20260901172826 89 83 0.0 1.0 0.00 0.00 0.00 60 1013.6
20260901172325 89 83 1.0 1.0 0.00 0.00 0.00 63 1013.5
20260901171823 89 83 1.0 1.0 0.00 0.00 0.00 64 1013.7
20260901171322 88 84 3.0 3.0 0.00 0.00 0.00 63 1013.4
20260901170817 88 84 3.0 3.0 0.00 0.00 0.00 61 1013.5
20260901170317 88 83 2.0 2.0 0.00 0.00 0.00 61 1013.6
20260901165816 88 83 2.0 3.0 0.00 0.00 0.00 63 1013.4
20260901165310 88 83 1.0 1.0 0.00 0.00 0.00 64 1013.6
20260901164807 88 82 2.0 2.0 0.00 0.00 0.00 65 1013.7
20260901164302 88 82 0.0 0.0 0.00 0.00 0.00 65 1013.6
20260901163757 87 82 0.0 1.0 0.00 0.00 0.00 68 1013.7
20260901163257 87 82 0.0 1.0 0.00 0.00 0.00 70 1013.7
20260901162752 87 82 2.0 2.0 0.00 0.00 0.00 68 1013.8
20260901162251 86 83 3.0 3.0 0.00 0.00 0.00 67 1013.4
20260901161750 86 82 1.0 1.0 0.00 0.00 0.00 68 1013.7
20260901161244 86 82 1.0 1.0 0.00 0.00 0.00 67 1013.6
20260901160741 86 82 2.0 2.0 0.00 0.00 0.00 66 1013.6
20260901160236 86 82 3.0 3.0 0.00 0.00 0.00 68 1013.6
20260901155735 86 82 2.0 2.0 0.00 0.00 0.00 71 1013.5
20260901155230 86 82 2.0 2.0 0.00 0.00 0.00 68 1013.6
20260901154725 85 82 0.0 0.0 0.00 0.00 0.00 71 1013.5
20260901154221 85 82 2.0 3.0 0.00 0.00 0.00 71 1013.4
20260901153716 85 82 2.0 2.0 0.00 0.00 0.00 70 1013.5
20260901153209 84 82 1.0 1.0 0.00 0.00 0.00 73 1013.6
20260901152704 84 82 1.0 2.0 0.00 0.00 0.00 74 1013.3
20260901152203 84 82 0.0 1.0 0.00 0.00 0.00 76 1013.2
20260901151659 83 82 2.0 3.0 0.00 0.00 0.00 76 1013.4
20260901151158 83 82 2.0 2.0 0.00 0.00 0.00 75 1013.3
20260901150657 84 82 3.0 5.0 0.00 0.00 0.00 75 1013.6
20260901150155 83 82 1.0 2.0 0.00 0.00 0.00 76 1013.5
20260901145654 82 82 0.0 0.0 0.00 0.00 0.00 77 1013.7
20260901145154 82 82 1.0 1.0 0.00 0.00 0.00 80 1013.4
20260901144649 82 82 2.0 2.0 0.00 0.00 0.00 84 1013.5
20260901144144 80 81 0.0 0.0 0.00 0.00 0.00 86 1013.6
20260901143639 79 81 0.0 0.0 0.00 0.00 0.00 87 1013.6
20260901143136 79 81 0.0 1.0 0.00 0.00 0.00 88 1013.6
20260901142632 78 81 1.0 1.0 0.00 0.00 0.00 88 1013.6
20260901142131 78 81 1.0 2.0 0.00 0.00 0.00 91 1013.7
20260901141625 77 81 0.0 1.0 0.00 0.00 0.00 92 1013.6
20260901141120 76 81 0.0 1.0 0.00 0.00 0.00 94 1013.7
20260901140619 76 80 0.0 0.0 0.00 0.00 0.00 96 1013.7
20260901140118 75 80 0.0 1.0 0.00 0.00 0.00 98 1013.8
20260901135618 75 79 0.0 0.0 0.00 0.00 0.00 99 1013.9
20260901135113 74 79 0.0 0.0 0.00 0.00 0.00 99 1013.9
20260901134609 74 79 0.0 0.0 0.00 0.00 0.00 99 1013.8
20260901134104 74 79 0.0 0.0 0.00 0.00 0.00 99 1013.7
20260901133603 74 79 0.0 0.0 0.00 0.00 0.00 99 1013.9
20260901133102 74 79 0.0 0.0 0.00 0.00 0.00 99 1013.9
20260901132557 73 79 0.0 0.0 0.00 0.00 0.00 99 1013.8
20260901132051 73 79 0.0 0.0 0.00 0.00 0.00 99 1013.8
20260901131551 73 79 0.0 0.0 0.00 0.00 0.00 99 1013.9
20260901131045 73 79 0.0 0.0 0.00 0.00 0.00 99 1013.7
20260901130540 73 79 0.0 0.0 0.00 0.00 0.00 99 1013.8
20260901130038 73 79 0.0 0.0 0.00 0.00 0.00 99 1013.5
20260901125537 73 79 0.0 0.0 0.00 0.00 0.00 99 1013.6
20260901125033 73 79 0.0 0.0 0.00 0.00 0.00 99 1013.7
20260901124532 73 79 0.0 0.0 0.00 0.00 0.00 99 1013.6
20260901124027 73 79 0.0 0.0 0.00 0.00 0.00 99 1013.3
20260901123522 73 79 0.0 0.0 0.00 0.00 0.00 99 1013.4
20260901123021 73 79 0.0 0.0 0.00 0.00 0.00 99 1013.5
20260901122520 73 79 0.0 0.0 0.00 0.00 0.00 99 1013.4
20260901122014 73 79 0.0 0.0 0.00 0.00 0.00 99 1013.4
20260901121509 73 79 0.0 0.0 0.00 0.00 0.00 99 1013.5
20260901121004 73 79 0.0 0.0 0.00 0.00 0.00 99 1013.2
20260901120504 73 79 0.0 0.0 0.00 0.00 0.00 99 1013.5
20260901115959 72 80 0.0 0.0 0.00 0.00 0.00 99 1013.2
20260901115454 72 80 0.0 0.0 0.00 0.00 0.00 99 1013.4
20260901114952 72 80 0.0 0.0 0.00 0.00 0.00 99 1013.2
20260901114447 72 80 0.0 0.0 0.00 0.00 0.00 99 1013.3
20260901113945 72 80 0.0 0.0 0.00 0.00 0.00 99 1013.3
20260901113444 71 80 0.0 0.0 0.00 0.00 0.00 99 1013.4
20260901112939 72 80 0.0 0.0 0.00 0.00 0.00 99 1013.2
20260901112435 72 80 0.0 0.0 0.00 0.00 0.00 99 1013.3
20260901111924 72 80 0.0 0.0 0.00 0.00 0.00 99 1013.6
20260901111422 72 80 0.0 0.0 0.00 0.00 0.00 99 1013.2
20260901110921 71 80 0.0 0.0 0.00 0.00 0.00 99 1013.1
20260901110417 72 80 0.0 0.0 0.00 0.00 0.00 99 1013.3
20260901105912 72 80 0.0 0.0 0.00 0.00 0.00 99 1013.2
20260901105403 72 80 0.0 0.0 0.00 0.00 0.00 99 1013.3
20260901104858 72 80 0.0 0.0 0.00 0.00 0.00 99 1013.2
20260901104353 72 80 0.0 0.0 0.00 0.00 0.00 99 1013.1
20260901103849 72 80 0.0 0.0 0.00 0.00 0.00 99 1013.2
20260901103348 72 80 0.0 0.0 0.00 0.00 0.00 99 1013.4
20260901102843 72 80 0.0 0.0 0.00 0.00 0.00 99 1013.4
20260901102338 72 80 0.0 0.0 0.00 0.00 0.00 99 1013.3
20260901101833 72 80 0.0 1.0 0.00 0.00 0.00 99 1013.3
20260901101333 72 80 0.0 0.0 0.00 0.00 0.00 99 1013.6
20260901100832 72 80 0.0 0.0 0.00 0.00 0.00 99 1013.3
20260901100328 72 80 0.0 0.0 0.00 0.00 0.00 99 1013.3
20260901095826 72 79 0.0 0.0 0.00 0.00 0.00 99 1013.4
20260901095324 72 79 0.0 0.0 0.00 0.00 0.00 99 1013.2
20260901094818 72 79 0.0 0.0 0.00 0.00 0.00 99 1013.2
20260901094313 72 79 0.0 0.0 0.00 0.00 0.00 99 1013.1
20260901093808 72 79 0.0 0.0 0.00 0.00 0.00 99 1013.5
20260901093307 72 79 0.0 0.0 0.00 0.00 0.00 99 1013.2
20260901092803 72 79 1.0 1.0 0.00 0.00 0.00 99 1013.3
20260901092259 72 79 0.0 0.0 0.00 0.00 0.00 99 1013.3
20260901091754 72 79 0.0 0.0 0.00 0.00 0.00 99 1013.3
20260901091249 72 79 0.0 0.0 0.00 0.00 0.00 99 1013.4
20260901090744 72 79 0.0 0.0 0.00 0.00 0.00 99 1013.5
20260901090239 72 79 0.0 0.0 0.00 0.00 0.00 99 1013.6
20260901085735 72 79 0.0 0.0 0.00 0.00 0.00 99 1013.3
20260901085230 72 79 0.0 0.0 0.00 0.00 0.00 99 1013.5
20260901084726 72 79 0.0 0.0 0.00 0.00 0.00 99 1013.5
20260901084222 72 79 0.0 0.0 0.00 0.00 0.00 99 1013.4
20260901083717 72 79 0.0 0.0 0.00 0.00 0.00 99 1013.3
20260901083216 72 79 0.0 0.0 0.00 0.00 0.00 99 1013.4
20260901082715 72 79 0.0 0.0 0.00 0.00 0.00 99 1013.4
20260901082211 72 80 0.0 0.0 0.00 0.00 0.00 99 1013.3
20260901081706 72 80 0.0 0.0 0.00 0.00 0.00 99 1013.3
20260901081206 72 80 0.0 0.0 0.00 0.00 0.00 99 1013.5
20260901080701 73 80 0.0 0.0 0.00 0.00 0.00 99 1013.6
20260901080159 73 80 0.0 0.0 0.00 0.00 0.00 99 1013.6
20260901075654 73 80 0.0 0.0 0.00 0.00 0.00 99 1013.5
20260901075149 73 80 0.0 0.0 0.00 0.00 0.00 99 1013.7
20260901074648 73 80 0.0 0.0 0.00 0.00 0.00 99 1013.5
20260901074144 73 80 0.0 0.0 0.00 0.00 0.00 99 1013.7
20260901073640 73 80 0.0 0.0 0.00 0.00 0.00 99 1013.6
20260901073135 73 80 0.0 0.0 0.00 0.00 0.00 99 1013.7
20260901072630 73 80 0.0 0.0 0.00 0.00 0.00 99 1013.7
20260901072125 73 80 0.0 0.0 0.00 0.00 0.00 99 1013.5
20260901071625 73 80 0.0 0.0 0.00 0.00 0.00 99 1013.5
20260901071124 73 80 0.0 0.0 0.00 0.00 0.00 99 1013.5
20260901070619 73 80 0.0 0.0 0.00 0.00 0.00 99 1013.7
20260901070114 73 80 0.0 0.0 0.00 0.00 0.00 99 1013.8
20260901065608 73 80 0.0 0.0 0.00 0.00 0.00 99 1013.9
20260901065103 73 80 0.0 0.0 0.00 0.00 0.00 99 1013.6
20260901064600 73 80 0.0 0.0 0.00 0.00 0.00 99 1013.9
20260901064056 73 80 0.0 0.0 0.00 0.00 0.00 99 1013.6
20260901063553 73 80 0.0 0.0 0.00 0.00 0.00 99 1013.9
20260901063049 74 80 0.0 0.0 0.00 0.00 0.00 99 1013.8
20260901062544 74 80 0.0 0.0 0.00 0.00 0.00 99 1013.8
20260901062040 74 80 0.0 0.0 0.00 0.00 0.00 99 1013.6
20260901061536 74 80 0.0 0.0 0.00 0.00 0.00 99 1014.0
20260901061031 74 80 0.0 0.0 0.00 0.00 0.00 99 1013.9
20260901060525 74 81 0.0 0.0 0.00 0.00 0.00 99 1013.7
20260901060020 74 81 0.0 0.0 0.00 0.00 0.00 99 1013.9
20260901055516 74 81 0.0 0.0 0.00 0.00 0.00 99 1013.8
20260901055013 74 81 0.0 0.0 0.00 0.00 0.00 99 1014.0
20260901054509 74 81 0.0 0.0 0.00 0.00 0.00 99 1013.8
20260901054005 74 81 0.0 0.0 0.00 0.00 0.00 99 1013.6
20260901053500 74 81 0.0 0.0 0.00 0.00 0.00 99 1013.7
20260901052956 75 81 0.0 0.0 0.00 0.00 0.00 99 1013.9
20260901052452 75 81 0.0 0.0 0.00 0.00 0.00 99 1013.8
20260901051950 74 81 0.0 0.0 0.00 0.00 0.00 99 1013.8
20260901051446 74 81 0.0 0.0 0.00 0.00 0.00 99 1013.9
20260901050945 74 81 0.0 0.0 0.00 0.00 0.00 99 1013.5
20260901050441 75 81 0.0 0.0 0.00 0.00 0.00 99 1013.6
20260901045941 75 81 0.0 0.0 0.00 0.00 0.00 99 1013.6
20260901045436 75 81 0.0 0.0 0.00 0.00 0.00 99 1013.5
20260901044931 75 81 0.0 0.0 0.00 0.00 0.00 99 1013.3
20260901044427 75 81 0.0 0.0 0.00 0.00 0.00 99 1013.2
20260901043923 75 81 0.0 0.0 0.00 0.00 0.00 99 1013.4
20260901043419 75 81 0.0 0.0 0.00 0.00 0.00 99 1012.9
20260901042918 75 81 0.0 0.0 0.00 0.00 0.00 99 1013.3
20260901042413 75 81 0.0 0.0 0.00 0.00 0.00 99 1013.1
20260901041908 75 81 0.0 0.0 0.00 0.00 0.00 99 1013.3
20260901041403 75 81 0.0 0.0 0.00 0.00 0.00 99 1013.2
20260901040902 75 81 0.0 0.0 0.00 0.00 0.00 99 1013.1
20260901040402 75 81 0.0 0.0 0.00 0.00 0.00 99 1013.1
20260901035856 75 81 0.0 0.0 0.00 0.00 0.00 99 1013.0
20260901035355 76 81 0.0 0.0 0.00 0.00 0.00 99 1012.9
20260901034853 76 81 0.0 0.0 0.00 0.00 0.00 99 1013.0
20260901034348 76 81 0.0 0.0 0.00 0.00 0.00 99 1013.1
20260901033843 77 81 0.0 0.0 0.00 0.00 0.00 99 1013.0
20260901033342 77 81 0.0 0.0 0.00 0.00 0.00 99 1012.7
20260901032841 77 81 0.0 0.0 0.00 0.00 0.00 99 1012.9
20260901032341 77 81 0.0 0.0 0.00 0.00 0.00 99 1013.0
20260901031836 77 81 0.0 0.0 0.00 0.00 0.00 99 1012.9
20260901031332 77 81 0.0 0.0 0.00 0.00 0.00 99 1013.0
20260901030831 77 81 0.0 0.0 0.00 0.00 0.00 99 1013.2
20260901030327 77 81 0.0 0.0 0.00 0.00 0.00 99 1012.9
20260901025826 77 81 0.0 0.0 0.00 0.00 0.00 98 1013.0
20260901025321 77 81 0.0 0.0 0.00 0.00 0.00 98 1012.9
20260901024816 77 81 0.0 0.0 0.00 0.00 0.00 98 1013.2
20260901024315 77 81 0.0 0.0 0.00 0.00 0.00 97 1012.8
20260901023813 78 81 0.0 0.0 0.00 0.00 0.00 97 1012.8
20260901023308 78 81 0.0 0.0 0.00 0.00 0.00 97 1013.1
20260901022804 78 81 0.0 0.0 0.00 0.00 0.00 97 1012.9
20260901022300 79 81 0.0 0.0 0.00 0.00 0.00 96 1012.9
20260901021754 79 81 0.0 0.0 0.00 0.00 0.00 95 1012.7
20260901021250 79 81 0.0 0.0 0.00 0.00 0.00 94 1012.9
20260901020745 80 81 0.0 0.0 0.00 0.00 0.00 94 1013.0
20260901020240 80 81 0.0 0.0 0.00 0.00 0.00 93 1012.5
20260901015735 80 81 0.0 1.0 0.00 0.00 0.00 94 1012.8
20260901015231 80 81 0.0 1.0 0.00 0.00 0.00 93 1012.6
20260901014730 81 81 0.0 0.0 0.00 0.00 0.00 93 1012.8
20260901014226 81 81 0.0 0.0 0.00 0.00 0.00 93 1012.5
20260901013722 81 81 0.0 1.0 0.00 0.00 0.00 93 1012.6
20260901013217 81 81 0.0 0.0 0.00 0.00 0.00 93 1012.6
20260901012712 81 81 0.0 0.0 0.00 0.00 0.00 92 1012.4
20260901012207 82 81 0.0 0.0 0.00 0.00 0.00 92 1012.5
20260901011703 82 81 1.0 1.0 0.00 0.00 0.00 92 1012.2
20260901011202 82 81 0.0 0.0 0.00 0.00 0.00 91 1012.3
20260901010657 82 82 0.0 0.0 0.00 0.00 0.00 90 1012.6
20260901010151 82 82 0.0 0.0 0.00 0.00 0.00 90 1012.3
20260901005650 83 82 0.0 1.0 0.00 0.00 0.00 90 1012.3
20260901005146 83 82 0.0 0.0 0.00 0.00 0.00 89 1012.2
20260901004645 83 82 0.0 1.0 0.00 0.00 0.00 89 1012.1
20260901004140 83 82 0.0 0.0 0.00 0.00 0.00 89 1012.5
20260901003635 84 82 0.0 0.0 0.00 0.00 0.00 88 1012.4
20260901003133 84 82 0.0 0.0 0.00 0.00 0.00 87 1012.2
20260901002628 85 82 0.0 0.0 0.00 0.00 0.00 86 1012.2
20260901002122 85 82 0.0 0.0 0.00 0.00 0.00 85 1012.0
20260901001618 85 82 0.0 0.0 0.00 0.00 0.00 85 1012.1
20260901001113 85 82 0.0 0.0 0.00 0.00 0.00 85 1012.3
20260901000608 85 83 1.0 1.0 0.00 0.00 0.00 84 1012.1
20260901000104 85 82 0.0 0.0 0.00 0.00 0.00 84 1012.4
20260831235557 85 82 1.0 1.0 0.00 0.00 0.00 84 1012.3
20260831235052 86 82 0.0 1.0 0.00 0.00 0.00 83 1012.2
20260831234546 86 82 0.0 0.0 0.00 0.00 0.00 82 1012.1
20260831234043 86 83 0.0 1.0 0.00 0.00 0.00 82 1012.1
20260831233537 86 83 1.0 1.0 0.00 0.00 0.00 81 1011.9
20260831233033 86 84 2.0 2.0 0.00 0.00 0.00 81 1012.0
20260831232528 87 83 1.0 1.0 0.00 0.00 0.00 81 1011.9
20260831232024 87 84 3.0 3.0 0.00 0.00 0.00 80 1012.0
20260831231520 87 83 0.0 0.0 0.00 0.00 0.00 80 1012.1
20260831231016 87 83 1.0 1.0 0.00 0.00 0.00 79 1011.9
20260831230510 87 84 1.0 2.0 0.00 0.00 0.00 79 1012.0
20260831230005 88 83 2.0 2.0 0.00 0.00 0.00 79 1012.0
20260831225500 89 84 1.0 2.0 0.00 0.00 0.00 77 1012.3